When you browse on this site, cookies collect data to enhance your experience and personalize the content and advertising you see.
Visit our Privacy Policy to learn more. By continuing to use the site, you agree to this use of cookies and data.
  • In Österreich
  • Länderverzeichnis
  • Für 7 Tage
  • Wassertemperatur
  • Satellitenkarten
  • Wetterkarte
  • News
  • Widgets
  • user-avatar
    Anmelden

    Stündliche Wetter Warsaw

    Heute, 26 Mai, Sonntag

    Zeit Temperatur Niederschläge Wind Luftdruck Luftfeuchtigkeit
    00:00 +12°C° 0 mm 2 m/S 751 mmHg 82%
    01:00 +12°C° 0 mm 2 m/S 751 mmHg 83%
    02:00 +10°C° 0 mm 2 m/S 751 mmHg 84%
    03:00 +10°C° 0 mm 2 m/S 751 mmHg 85%
    04:00 +9°C° 0 mm 2 m/S 751 mmHg 86%
    05:00 +11°C° 0 mm 3 m/S 751 mmHg 81%
    06:00 +12°C° 0 mm 3 m/S 751 mmHg 76%
    07:00 +13°C° 0 mm 3 m/S 751 mmHg 70%
    08:00 +14°C° 0 mm 4 m/S 751 mmHg 67%
    09:00 +17°C° 0 mm 4 m/S 751 mmHg 63%
    10:00 +17°C° 0 mm 5 m/S 751 mmHg 60%
    11:00 +17°C° 0 mm 5 m/S 751 mmHg 58%
    12:00 +19°C° 0 mm 5 m/S 751 mmHg 56%
    13:00 +20°C° 0 mm 5 m/S 750 mmHg 55%
    14:00 +20°C° 0 mm 5 m/S 750 mmHg 55%
    15:00 +20°C° 0 mm 5 m/S 750 mmHg 55%
    16:00 +20°C° 0 mm 5 m/S 750 mmHg 55%
    17:00 +19°C° 0 mm 4 m/S 749 mmHg 59%
    18:00 +18°C° 0 mm 3 m/S 749 mmHg 64%
    19:00 +17°C° 0 mm 2 m/S 749 mmHg 68%
    20:00 +17°C° 0 mm 2 m/S 749 mmHg 71%
    21:00 +16°C° 0 mm 3 m/S 749 mmHg 74%
    22:00 +14°C° 0 mm 3 m/S 749 mmHg 77%
    23:00 +14°C° 0 mm 3 m/S 749 mmHg 78%

    Morgen, 27 Mai, Montag

    Zeit Temperatur Niederschläge Wind Luftdruck Luftfeuchtigkeit
    00:00 +14°C° 0 mm 3 m/S 749 mmHg 79%
    01:00 +14°C° 0 mm 4 m/S 749 mmHg 80%
    02:00 +14°C° 0 mm 3 m/S 749 mmHg 82%
    03:00 +13°C° 0 mm 3 m/S 749 mmHg 83%
    04:00 +13°C° 0 mm 3 m/S 749 mmHg 85%
    05:00 +16°C° 0 mm 3 m/S 749 mmHg 80%
    06:00 +18°C° 0 mm 3 m/S 749 mmHg 75%
    07:00 +19°C° 0 mm 4 m/S 749 mmHg 69%
    08:00 +21°C° 0 mm 4 m/S 748 mmHg 63%
    09:00 +23°C° 0 mm 5 m/S 748 mmHg 56%
    10:00 +25°C° 0 mm 5 m/S 748 mmHg 50%
    11:00 +26°C° 0 mm 5 m/S 748 mmHg 49%
    12:00 +27°C° 0 mm 6 m/S 748 mmHg 48%
    13:00 +27°C° 0 mm 6 m/S 748 mmHg 47%
    14:00 +27°C° 0.1 mm 5 m/S 747 mmHg 49%
    15:00 +27°C° 0.1 mm 5 m/S 747 mmHg 52%
    16:00 +26°C° 0.1 mm 5 m/S 747 mmHg 54%
    17:00 +25°C° 0.1 mm 4 m/S 747 mmHg 59%
    18:00 +24°C° 0.1 mm 3 m/S 747 mmHg 65%
    19:00 +21°C° 0.1 mm 3 m/S 747 mmHg 70%
    20:00 +21°C° 0.1 mm 2 m/S 748 mmHg 74%
    21:00 +20°C° 0.1 mm 2 m/S 748 mmHg 77%
    22:00 +20°C° 0.1 mm 1 m/S 748 mmHg 80%
    23:00 +19°C° 0 mm 1 m/S 748 mmHg 82%

    übermorgen, 28 Mai, Dienstag

    Zeit Temperatur Niederschläge Wind Luftdruck Luftfeuchtigkeit
    00:00 +19°C° 0 mm 1 m/S 748 mmHg 84%
    01:00 +19°C° 0 mm 1 m/S 747 mmHg 85%
    02:00 +18°C° 1 mm 1 m/S 747 mmHg 88%
    03:00 +17°C° 1 mm 2 m/S 747 mmHg 90%
    04:00 +17°C° 1 mm 2 m/S 746 mmHg 92%
    05:00 +17°C° 2.8 mm 2 m/S 746 mmHg 93%
    06:00 +17°C° 2.8 mm 2 m/S 745 mmHg 94%
    07:00 +17°C° 2.8 mm 2 m/S 745 mmHg 95%
    08:00 +19°C° 0.4 mm 3 m/S 745 mmHg 87%
    09:00 +21°C° 0.4 mm 4 m/S 745 mmHg 79%
    10:00 +23°C° 0.4 mm 5 m/S 744 mmHg 72%
    11:00 +25°C° 0.3 mm 5 m/S 744 mmHg 66%
    12:00 +26°C° 0.3 mm 5 m/S 744 mmHg 61%
    13:00 +27°C° 0.3 mm 5 m/S 743 mmHg 55%
    14:00 +26°C° 0.5 mm 5 m/S 743 mmHg 59%
    15:00 +25°C° 0.5 mm 4 m/S 743 mmHg 63%
    16:00 +23°C° 0.5 mm 4 m/S 743 mmHg 67%
    17:00 +22°C° 0.6 mm 4 m/S 743 mmHg 71%
    18:00 +21°C° 0.6 mm 4 m/S 743 mmHg 74%
    19:00 +20°C° 0.6 mm 4 m/S 743 mmHg 78%
    20:00 +20°C° 1.3 mm 3 m/S 743 mmHg 82%
    21:00 +19°C° 1.3 mm 3 m/S 743 mmHg 86%
    22:00 +18°C° 1.3 mm 3 m/S 743 mmHg 90%
    23:00 +18°C° 0.1 mm 3 m/S 743 mmHg 91%

    29 Mai, Mittwoch

    Zeit Temperatur Niederschläge Wind Luftdruck Luftfeuchtigkeit
    00:00 +17°C° 0.1 mm 3 m/S 743 mmHg 93%
    01:00 +15°C° 0.1 mm 4 m/S 743 mmHg 94%
    02:00 +14°C° 0 mm 4 m/S 744 mmHg 93%
    03:00 +14°C° 0 mm 4 m/S 744 mmHg 92%
    04:00 +13°C° 0 mm 5 m/S 744 mmHg 91%
    05:00 +13°C° 0 mm 5 m/S 745 mmHg 90%
    06:00 +12°C° 0 mm 4 m/S 745 mmHg 89%
    07:00 +12°C° 0 mm 4 m/S 746 mmHg 88%
    08:00 +13°C° 0 mm 4 m/S 746 mmHg 85%
    09:00 +13°C° 0 mm 4 m/S 747 mmHg 83%
    10:00 +14°C° 0 mm 3 m/S 747 mmHg 80%
    11:00 +16°C° 0 mm 3 m/S 748 mmHg 78%
    12:00 +16°C° 0 mm 3 m/S 748 mmHg 75%
    13:00 +17°C° 0 mm 3 m/S 748 mmHg 72%
    14:00 +17°C° 0 mm 3 m/S 748 mmHg 72%
    15:00 +17°C° 0 mm 3 m/S 748 mmHg 71%
    16:00 +17°C° 0 mm 3 m/S 748 mmHg 71%
    17:00 +17°C° 0.6 mm 2 m/S 749 mmHg 75%
    18:00 +16°C° 0.6 mm 2 m/S 749 mmHg 79%
    19:00 +15°C° 0.6 mm 1 m/S 749 mmHg 83%
    20:00 +15°C° 0.7 mm 2 m/S 750 mmHg 86%
    21:00 +14°C° 0.7 mm 2 m/S 750 mmHg 89%
    22:00 +13°C° 0.7 mm 3 m/S 751 mmHg 91%
    23:00 +13°C° 0.3 mm 3 m/S 751 mmHg 91%

    30 Mai, Donnerstag

    Zeit Temperatur Niederschläge Wind Luftdruck Luftfeuchtigkeit
    00:00 +13°C° 0.3 mm 3 m/S 751 mmHg 92%
    01:00 +13°C° 0.3 mm 3 m/S 751 mmHg 92%
    02:00 +12°C° 0.4 mm 3 m/S 752 mmHg 92%
    03:00 +13°C° 0.4 mm 2 m/S 752 mmHg 93%
    04:00 +13°C° 0.4 mm 2 m/S 753 mmHg 93%
    05:00 +12°C° 0.8 mm 3 m/S 753 mmHg 93%
    06:00 +11°C° 0.8 mm 4 m/S 754 mmHg 92%
    07:00 +10°C° 0.8 mm 4 m/S 754 mmHg 91%
    08:00 +11°C° 0.2 mm 4 m/S 755 mmHg 85%
    09:00 +12°C° 0.2 mm 4 m/S 755 mmHg 80%
    10:00 +13°C° 0.2 mm 4 m/S 755 mmHg 75%
    11:00 +14°C° 0 mm 4 m/S 756 mmHg 67%
    12:00 +17°C° 0 mm 4 m/S 756 mmHg 59%
    13:00 +18°C° 0 mm 4 m/S 756 mmHg 52%
    14:00 +18°C° 0 mm 4 m/S 756 mmHg 51%
    15:00 +18°C° 0 mm 4 m/S 756 mmHg 51%
    16:00 +18°C° 0 mm 4 m/S 756 mmHg 50%
    17:00 +17°C° 0 mm 3 m/S 757 mmHg 54%
    18:00 +16°C° 0 mm 3 m/S 757 mmHg 57%
    19:00 +15°C° 0 mm 2 m/S 757 mmHg 61%
    20:00 +14°C° 0 mm 2 m/S 757 mmHg 63%
    21:00 +13°C° 0 mm 1 m/S 758 mmHg 65%
    22:00 +12°C° 0 mm 1 m/S 758 mmHg 67%
    23:00 +12°C° 0 mm 1 m/S 758 mmHg 68%

    31 Mai, Freitag

    Zeit Temperatur Niederschläge Wind Luftdruck Luftfeuchtigkeit
    00:00 +10°C° 0 mm 2 m/S 758 mmHg 69%
    01:00 +10°C° 0 mm 2 m/S 757 mmHg 69%
    02:00 +10°C° 0 mm 3 m/S 757 mmHg 70%
    03:00 +10°C° 0 mm 3 m/S 757 mmHg 71%
    04:00 +10°C° 0 mm 4 m/S 756 mmHg 72%
    05:00 +11°C° 0 mm 4 m/S 756 mmHg 69%
    06:00 +13°C° 0 mm 5 m/S 756 mmHg 66%
    07:00 +15°C° 0 mm 5 m/S 756 mmHg 63%
    08:00 +16°C° 0 mm 6 m/S 755 mmHg 62%
    09:00 +19°C° 0 mm 6 m/S 755 mmHg 61%
    10:00 +20°C° 0 mm 6 m/S 755 mmHg 60%
    11:00 +20°C° 0.4 mm 6 m/S 755 mmHg 64%
    12:00 +19°C° 0.4 mm 6 m/S 755 mmHg 68%
    13:00 +19°C° 0.4 mm 6 m/S 755 mmHg 72%
    14:00 +16°C° 0.3 mm 6 m/S 756 mmHg 75%
    15:00 +15°C° 0.3 mm 6 m/S 756 mmHg 79%
    16:00 +13°C° 0.3 mm 6 m/S 757 mmHg 82%
    17:00 +12°C° 0 mm 4 m/S 758 mmHg 80%
    18:00 +12°C° 0 mm 3 m/S 758 mmHg 78%
    19:00 +12°C° 0 mm 1 m/S 759 mmHg 76%
    20:00 +12°C° 0 mm 1 m/S 760 mmHg 78%
    21:00 +11°C° 0 mm 1 m/S 760 mmHg 80%
    22:00 +10°C° 0 mm 1 m/S 761 mmHg 82%
    23:00 +9°C° 0 mm 1 m/S 761 mmHg 83%
    Mehr zeigen